Al Hoceima, Morocco

2:41 AM WEST on May 01, 2017 (GMT +0100)
Al Hoceima

Weather History for GMTA - October, 2012

Change the Weather History Date:

Saturday, October 20, 2012

  Actual Average Record
Temperature  
Mean Temperature 65 °F -  
Max Temperature 71 °F 68 °F 84 °F (2015)
Min Temperature 59 °F 54 °F 53 °F (1998)
Growing Degree Days 15 (Base 50)    
Moisture  
Dew Point 55 °F    
Average Humidity 70    
Maximum Humidity 82    
Minimum Humidity 53    
Precipitation  
Precipitation 0.08 in - - ()
Sea Level Pressure  
Sea Level Pressure 29.90 in    
Wind  
Wind Speed 3 mph ()    
Max Wind Speed 7 mph    
Max Gust Speed -    
Visibility 5.6 miles    
Events Rain    
Averages and records for this station are not official NWS values.
T = Trace of Precipitation, MM = Missing Value Source: Averaged Metar Reports

Daily Weather History Graph

Daily Weather History Graph

Search for Another Location

Airport or City:

Trip Planner

Search our weather history database for the weather conditions in past years. The results will help you decide how hot, cold, wet, or windy it might be!

Date:

Astronomy

Oct. 20, 2012 Rise Set
Actual Time 6:25 AM WET 5:33 PM WET
Civil Twilight 6:00 AM WET 5:59 PM WET
Nautical Twilight 5:30 AM WET 6:28 PM WET
Astronomical Twilight 5:01 AM WET 6:58 PM WET
Moon 11:43 AM WET (10/20) 10:09 PM WET (10/20)
Length of Visible Light 11h 59m
Length of Day
11h 07m
Waxing Crescent, 32% of the Moon is Illuminated
Oct 20
Waxing Crescent
Oct 22
First Quarter
Oct 29
Full
Nov 7
Last Quarter
Nov 13
New

Hourly Weather History & Observations

Time (WET) Temp. Dew Point Humidity Pressure Visibility Wind Dir Wind Speed Gust Speed Precip Events Conditions
6:00 AM 61 °F 54 °F 72% 29.87 in 4 mi SSE 4.6 mph - - Rain Light Rain
6:00 AM 60.8 °F 53.6 °F 77% 29.86 in 3.7 mi SSE 4.6 mph - N/A Rain Light Rain
7:00 AM 60.8 °F 53.6 °F 77% 29.86 in 3.7 mi South 4.6 mph - N/A Rain Light Rain
8:00 AM 59.0 °F 53.6 °F 82% 29.89 in 3.7 mi South 4.6 mph - N/A Rain Light Rain
9:00 AM 61 °F 55 °F 73% 29.91 in 5 mi SSW 6.9 mph - - Rain Light Rain
9:00 AM 60.8 °F 55.4 °F 82% 29.89 in 5.0 mi SSW 6.9 mph - N/A   Overcast
10:00 AM 62.6 °F 55.4 °F 77% 29.89 in 6.2 mi ESE 2.3 mph - N/A   Mostly Cloudy
11:00 AM 64.4 °F 57.2 °F 77% 29.89 in 6.2 mi WSW 2.3 mph - N/A   Mostly Cloudy
12:00 PM 66 °F 56 °F 62% 29.90 in 6 mi South 2.3 mph - - Rain Light Rain
12:00 PM 66.2 °F 55.4 °F 68% 29.89 in 6.2 mi South 2.3 mph - N/A Rain Light Rain
1:00 PM 68.0 °F 57.2 °F 68% 29.89 in 6.2 mi South 2.3 mph - N/A   Mostly Cloudy
2:00 PM 69.8 °F 53.6 °F 56% 29.86 in 6.2 mi ESE 4.6 mph - N/A   Mostly Cloudy
3:00 PM 70 °F 56 °F 53% 29.89 in 6 mi NNW 4.6 mph - -   Partly Cloudy
3:00 PM 69.8 °F 57.2 °F 64% 29.89 in 6.2 mi NNW 4.6 mph - N/A   Scattered Clouds
4:00 PM 69.8 °F 55.4 °F 60% 29.89 in 6.2 mi Calm Calm - N/A   Partly Cloudy
5:00 PM 68.0 °F 53.6 °F 60% 29.92 in 6.2 mi NNE 2.3 mph - N/A   Partly Cloudy
6:00 PM 65 °F 55 °F 62% 29.93 in 6 mi NNW 2.3 mph - -   Scattered Clouds
6:00 PM 64.4 °F 55.4 °F 73% 29.92 in 6.2 mi NNW 2.3 mph - N/A   Partly Cloudy
7:00 PM 62.6 °F 53.6 °F 72% 29.92 in 6.2 mi South 2.3 mph - N/A   Partly Cloudy
8:00 PM 60.8 °F 51.8 °F 72% 29.95 in 6.2 mi South 2.3 mph - N/A   Partly Cloudy
9:00 PM 60 °F 52 °F 69% 29.96 in 6 mi SSE 4.6 mph - -   Scattered Clouds
9:00 PM 60.8 °F 53.6 °F 77% 29.95 in 6.2 mi SSE 4.6 mph - N/A   Partly Cloudy